Location: Edoum�
(0.9447°N, 10.6482°E)
Time: 12:51:43
(UTC+00:00)

Cosmos 2278 Rocket - Pass Details

Date: 07 June 2020
Orbit: 840 x 847 km, 71.0° (Epoch: 07 July)

Event Time Altitude Azimuth Distance (km) Brightness Sun altitude
Rises 04:17:00 0° 1° (N) 3,388 5.7 -13.3°
Reaches altitude 10° 04:19:40 10° 11° (N) 2,455 5.1 -12.7°
Maximum altitude 04:24:43 34° 75° (ENE) 1,356 4.1 -11.5°
Drops below altitude 10° 04:29:45 10° 138° (SE) 2,459 4.9 -10.4°
Sets 04:32:24 0° 147° (SSE) 3,394 5.5 -9.7°
